Location: Boiro
(42.6475°N, 8.8834°W)
Time: 17:15:12
(UTC+02:00)

Explorer 7 - Pass Details

Date: 30 June 2022
Orbit: 482 x 668 km, 50.3° (Epoch: 10 August)

Event Time Altitude Azimuth Distance (km) Brightness Sun altitude
Rises 23:38:23 0° 198° (SSW) 2,983 10.3 -12.1°
Reaches altitude 10° 23:41:08 10° 184° (S) 2,083 9.3 -12.5°
Maximum altitude 23:44:52 23° 133° (SE) 1,426 8.3 -12.9°
Drops below altitude 10° 23:48:36 10° 82° (E) 2,082 9.5 -13.4°
Sets 23:51:20 0° 68° (ENE) 2,983 10.4 -13.7°
